{"data":{"norad_id":56411,"epoch":"2026-05-25T04:59:02.045184Z","epoch_age_seconds":53263,"freshness":"FRESH","line1":"1 56411U 23061AP  26145.20766256 -.00005366  00000+0 -18529-3 0  9990","line2":"2 56411  43.0075 115.1925 0003378 277.8956  82.1513 15.27624916168577","mean_motion":15.27624916,"eccentricity":0.0003378,"inclination_deg":43.0075,"raan_deg":115.1925,"arg_perigee_deg":277.8956,"mean_anomaly_deg":82.1513,"bstar":-0.00018529,"rev_number":16857,"period_min":94.263977035054,"perigee_km":480.59694144056,"apogee_km":485.23226790468,"semimajor_km":6861.0516046726,"source":"CELESTRAK","updated_at":"2026-05-25T13:38:18.060691Z"}}